Vorticity
26 23 10 6 18 15 12 11 8 10 17 10 8 5 6 10 7 8 7 8 12 11 17 13 11 9 10 7 9 9 10 6 16 15 18 -7 12 6 -1 2 1 16 12
17 3 15 19 13 9 15 8 11 14 15 5 3 7 5 6 6 8 6 8 10 13 9 7 6 8 6 5 7 1 6 7 14 15 5 -2 9 19 1 5 2 15 12
17 23 23 3 22 12 4 16 -3 15 16 8 2 7 6 6 8 5 5 9 13 12 6 7 9 14 10 15 9 4 7 10 3 1 38 24 -4 0 -1 5 8 15 10
3 -4 16 1 -3 8 9 11 19 13 10 12 12 10 11 8 7 1 7 11 13 6 8 9 7 10 21 16 4 7 12 7 7 11 20 5 5 9 7 7 10 8 8
14 15 20 8 12 6 13 1 19 14 5 1 15 8 7 7 3 1 8 15 9 7 8 12 7 5 3 14 8 9 9 16 2 9 3 24 -18 12 0 9 9 10 6
23 8 7 -2 20 4 8 11 7 4 20 13 18 8 6 3 -1 4 12 12 6 6 13 10 7 8 10 23 17 20 13 7 -7 20 16 -3 8 25 -1 9 4 5 7
22 -6 12 3 17 10 -1 9 -1 14 5 16 9 7 4 5 2 7 13 9 7 8 16 4 8 -1 -1 28 26 18 4 24 9 2 5 15 11 7 11 7 5 -2 7
49 7 2 21 14 15 11 11 13 10 7 10 8 6 6 1 3 7 10 7 8 5 7 0 -1 20 12 20 24 23 15 11 13 -6 12 20 -0 5 2 5 4 9 14
-2 39 -0 4 10 3 8 -1 12 16 9 11 8 7 6 2 1 9 8 6 6 7 10 1 4 6 12 28 32 20 19 4 11 27 -1 6 16 7 10 15 12 15 26
9 8 44 16 12 12 -8 7 14 17 4 9 11 7 6 5 4 9 6 6 7 8 8 5 5 -0 5 18 36 7 7 4 18 0 10 12 15 13 6 4 10 23 12
5 4 6 10 11 12 17 15 20 7 8 8 11 9 5 6 5 5 8 6 8 4 6 6 5 6 16 15 30 29 5 11 15 8 -11 2 7 3 4 9 15 7 4
0 3 14 15 10 7 7 4 25 12 4 6 14 7 6 5 7 6 11 9 7 4 6 6 6 7 10 15 14 23 10 2 4 12 13 -1 16 13 12 7 13 -6 6
1 13 19 15 14 4 6 11 -37 8 39 15 19 8 7 9 0 4 6 13 9 6 6 9 7 7 4 14 20 22 25 4 5 9 16 6 19 10 11 2 2 7 8
21 6 18 17 18 13 14 7 3 7 2 -1 26 4 8 5 7 1 3 6 12 11 6 8 9 7 7 10 13 17 24 9 11 18 15 9 6 5 8 11 2 3 15
8 7 15 21 20 3 3 5 5 6 9 15 22 16 10 5 9 2 1 2 5 10 11 9 8 8 7 6 12 17 7 16 13 -1 13 13 11 11 6 20 12 3 7
17 5 6 13 21 17 9 2 6 5 8 3 1 22 11 4 -4 5 5 2 4 3 7 7 6 6 6 7 7 6 14 17 9 10 -2 -5 21 5 -3 9 12 10 9
10 21 20 14 15 18 18 10 10 7 8 7 8 6 8 9 9 -4 5 0 7 5 4 5 5 4 4 4 5 5 6 6 10 8 10 10 8 7 5 4 5 6 8
6 2 16 9 16 15 22 10 12 9 10 9 9 9 4 11 11 8 -1 1 12 3 4 4 5 5 2 5 6 6 4 5 10 5 4 5 8 6 7 6 5 5 4
3 14 9 10 12 21 17 29 8 10 8 7 5 8 2 0 -4 6 5 -3 -4 11 1 4 3 3 2 4 2 5 9 5 8 7 9 6 3 3 5 5 5 7 -3
11 8 15 11 3 13 32 17 30 7 8 5 6 8 7 -16 8 7 -8 -1 11 15 8 4 6 4 2 -3 8 -1 -4 14 10 8 8 8 8 7 6 6 7 6 3
13 12 7 9 13 4 7 3 54 8 18 13 20 6 8 -31 -1 21 -4 -11 22 7 15 5 1 3 7 2 3 4 15 21 -1 9 6 8 8 4 6 7 6 5 6
14 13 2 15 5 12 7 15 8 30 37 15 -15 45 17 -3 4 6 13 3 38 -26 2 -10 15 10 -4 8 11 9 -8 14 -3 9 2 -5 -3 7 14 8 8 4 3
10 13 13 9 8 7 15 9 8 12 13 34 39 -13 31 -13 12 15 5 -12 -20 89 -19 31 16 7 14 -2 4 6 2 8 6 34 -2 18 -26 7 29 -30 6 6 5
6 9 10 17 11 8 -5 13 12 5 16 16 24 21 11 40 5 21 8 6 -4 51 4 30 -9 4 5 11 15 -3 3 -2 -12 12 -17 -0 1 23 -24 -9 24 11 10
11 8 6 15 12 15 15 11 14 19 17 16 11 10 13 23 25 31 26 22 29 39 41 46 1 24 14 5 16 36 35 30 13 20 11 23 16 20 24 25 30 23 28
11 8 11 12 22 11 12 11 11 7 5 4 5 7 12 16 20 16 17 22 20 18 18 20 29 26 33 29 27 26 27 21 19 22 23 19 19 21 20 16 9 4 2
Height
5659 5661 5664 5668 5674 5680 5684 5687 5690 5696 5703 5708 5710 5713 5718 5720 5720 5723 5724 5724 5725 5725 5725 5726 5726 5726 5728 5729 5731 5733 5735 5737 5739 5741 5743 5746 5751 5756 5760 5762 5765 5768 5771
5646 5648 5653 5658 5663 5670 5674 5676 5685 5689 5695 5699 5701 5704 5707 5711 5713 5716 5717 5717 5718 5718 5719 5719 5719 5721 5722 5722 5724 5726 5729 5730 5732 5734 5738 5740 5745 5750 5754 5758 5761 5763 5765
5635 5642 5645 5650 5655 5659 5663 5668 5677 5682 5687 5689 5694 5696 5700 5704 5707 5710 5710 5711 5711 5712 5713 5713 5713 5715 5716 5717 5717 5719 5721 5722 5725 5727 5728 5733 5740 5744 5749 5753 5753 5757 5760
5626 5631 5631 5637 5643 5647 5654 5663 5669 5674 5677 5682 5685 5689 5694 5699 5702 5703 5704 5704 5704 5705 5706 5706 5708 5710 5709 5709 5709 5711 5713 5716 5718 5721 5723 5729 5734 5738 5743 5747 5748 5750 5753
5616 5621 5623 5627 5634 5638 5648 5654 5662 5667 5670 5674 5678 5682 5687 5692 5695 5697 5697 5698 5698 5700 5699 5700 5703 5703 5702 5702 5702 5703 5706 5709 5712 5716 5719 5725 5728 5733 5738 5741 5745 5746 5748
5609 5614 5616 5621 5626 5633 5640 5644 5652 5658 5662 5667 5670 5676 5681 5686 5689 5691 5691 5692 5693 5695 5695 5695 5696 5696 5695 5693 5693 5695 5698 5702 5707 5710 5714 5720 5724 5727 5731 5735 5738 5740 5743
5602 5608 5613 5616 5623 5629 5636 5640 5643 5651 5655 5659 5664 5670 5674 5679 5682 5684 5685 5687 5688 5688 5689 5690 5690 5689 5688 5687 5686 5688 5692 5695 5700 5704 5709 5713 5717 5721 5725 5728 5732 5735 5737
5599 5603 5608 5612 5618 5624 5631 5633 5635 5642 5648 5653 5658 5663 5668 5673 5676 5679 5679 5681 5682 5683 5685 5685 5684 5684 5683 5680 5678 5680 5684 5688 5693 5698 5703 5707 5711 5715 5719 5722 5725 5727 5729
5596 5600 5602 5608 5612 5617 5621 5627 5630 5634 5642 5646 5652 5658 5662 5668 5670 5672 5673 5674 5676 5678 5679 5679 5679 5679 5677 5673 5671 5673 5677 5682 5687 5693 5697 5701 5705 5708 5712 5715 5718 5720 5721
5593 5596 5599 5603 5607 5610 5614 5620 5626 5630 5634 5639 5645 5651 5658 5663 5665 5667 5667 5668 5671 5672 5672 5673 5674 5674 5672 5667 5666 5669 5673 5677 5682 5687 5692 5696 5699 5702 5706 5710 5712 5714 5717
5589 5592 5596 5599 5602 5606 5609 5614 5618 5620 5623 5628 5636 5645 5650 5657 5660 5660 5661 5663 5665 5666 5667 5669 5669 5669 5668 5664 5662 5664 5669 5672 5677 5682 5686 5691 5694 5697 5700 5703 5707 5710 5712
5586 5588 5590 5593 5596 5600 5602 5606 5608 5615 5613 5625 5628 5636 5642 5649 5653 5655 5655 5657 5659 5660 5663 5664 5664 5664 5663 5660 5660 5661 5664 5668 5673 5677 5682 5685 5688 5692 5695 5699 5702 5704 5706
5584 5585 5586 5588 5591 5593 5596 5601 5601 5597 5608 5615 5620 5628 5637 5642 5646 5649 5649 5652 5654 5655 5656 5658 5659 5660 5659 5658 5657 5657 5660 5665 5669 5673 5677 5680 5683 5687 5690 5693 5695 5696 5698
5580 5581 5582 5584 5586 5588 5590 5595 5599 5602 5608 5609 5617 5623 5631 5634 5638 5642 5644 5646 5647 5649 5651 5654 5654 5655 5656 5656 5656 5656 5658 5660 5663 5666 5671 5675 5678 5681 5683 5685 5687 5689 5692
5577 5577 5578 5580 5582 5585 5587 5591 5594 5598 5605 5612 5612 5615 5620 5626 5632 5635 5637 5641 5642 5643 5646 5648 5649 5650 5651 5653 5654 5655 5657 5659 5661 5664 5667 5670 5673 5675 5677 5678 5680 5682 5683
5573 5574 5575 5576 5579 5582 5585 5587 5591 5595 5599 5603 5607 5610 5615 5619 5624 5630 5632 5634 5636 5638 5641 5643 5644 5645 5647 5649 5650 5652 5655 5656 5658 5660 5663 5666 5667 5669 5670 5671 5673 5674 5675
5570 5570 5571 5573 5575 5577 5580 5583 5586 5590 5594 5598 5602 5605 5610 5613 5617 5621 5625 5629 5631 5633 5635 5637 5639 5640 5642 5644 5646 5647 5650 5652 5654 5655 5658 5660 5661 5662 5663 5664 5665 5666 5667
5566 5567 5567 5568 5569 5572 5575 5577 5580 5583 5588 5593 5595 5599 5605 5608 5611 5614 5618 5622 5625 5626 5628 5630 5632 5634 5635 5637 5639 5641 5642 5645 5647 5648 5650 5652 5654 5655 5656 5657 5658 5659 5659
5563 5564 5565 5565 5566 5568 5570 5571 5574 5576 5580 5584 5589 5594 5598 5598 5603 5606 5608 5611 5615 5619 5621 5622 5625 5626 5628 5630 5632 5633 5635 5636 5638 5640 5641 5643 5645 5646 5646 5647 5647 5648 5648
5558 5559 5561 5562 5562 5563 5563 5563 5566 5570 5573 5577 5580 5585 5589 5586 5591 5596 5597 5600 5602 5607 5611 5614 5616 5618 5619 5620 5623 5624 5625 5626 5627 5629 5631 5632 5633 5634 5635 5635 5636 5636 5635
5553 5555 5557 5557 5558 5558 5558 5559 5560 5562 5566 5569 5571 5574 5579 5575 5582 5583 5588 5590 5592 5595 5599 5603 5605 5607 5609 5611 5612 5613 5614 5616 5617 5617 5618 5619 5621 5621 5622 5622 5622 5622 5623
5549 5549 5551 5552 5552 5553 5553 5552 5554 5555 5557 5557 5560 5562 5565 5570 5569 5573 5576 5579 5582 5583 5587 5589 5593 5596 5597 5598 5600 5601 5601 5601 5603 5602 5603 5606 5607 5608 5608 5608 5609 5608 5608
5545 5545 5544 5545 5546 5547 5547 5547 5547 5549 5550 5550 5551 5554 5555 5556 5559 5562 5564 5567 5568 5568 5572 5575 5577 5581 5584 5585 5587 5588 5588 5589 5589 5589 5588 5589 5591 5593 5593 5591 5591 5591 5590
5540 5540 5539 5539 5540 5541 5541 5541 5540 5541 5542 5541 5542 5542 5544 5545 5546 5548 5551 5554 5555 5557 5559 5560 5561 5564 5566 5568 5567 5569 5572 5573 5574 5576 5576 5576 5576 5575 5577 5574 5573 5574 5574
5534 5533 5533 5533 5533 5533 5534 5533 5534 5534 5534 5534 5534 5535 5535 5536 5536 5536 5537 5538 5540 5543 5544 5546 5548 5549 5550 5551 5552 5552 5551 5552 5554 5556 5558 5558 5559 5559 5560 5559 5558 5557 5557
5526 5526 5527 5527 5526 5527 5527 5528 5527 5528 5528 5529 5529 5529 5529 5530 5530 5529 5529 5530 5531 5531 5532 5533 5535 5536 5536 5536 5536 5539 5539 5538 5539 5541 5541 5541 5542 5543 5544 5542 5542 5541 5541